CAPE
0 0 0 0 0 0 0 0 0 0 0 0 0 0 0 0 0 92 648 812 786 642 997 979 763 666 678 462 299 513 857 1132 1270 1313 1379 1415 1532 1712 1800 1880 1620 1310 1134 872
0 0 0 0 0 0 0 0 0 0 0 0 0 0 0 0 0 112 672 843 1119 1193 1116 810 765 721 875 942 828 1043 1163 1313 1430 1604 1675 1736 1814 1796 1682 1333 1227 1178 971 803
0 0 0 0 0 0 0 0 0 0 0 0 0 0 0 0 10 191 467 1155 1315 1180 1011 1117 1174 1208 1246 1289 1380 1521 1645 1763 1872 1888 1932 1965 1901 1564 1238 1104 1019 831 579 1114
0 0 0 0 0 0 0 0 0 0 0 0 0 0 29 0 119 265 491 1207 1274 1115 1342 1382 1533 1772 1747 1731 1750 1881 2023 2070 2053 2005 1986 1857 1640 1466 1152 967 755 432 664 1030
0 0 0 0 0 0 0 0 0 0 0 0 0 31 67 191 577 895 1161 1126 1134 1369 1524 1510 1599 1685 1907 2066 2132 2088 2044 2026 2006 1969 1874 1742 1696 1435 1087 727 383 405 275 851
0 0 0 0 0 0 2 0 0 0 0 0 0 0 0 136 380 718 1167 1792 1617 1718 1712 1699 1619 1483 1428 1661 1801 1897 1971 2023 2072 2070 1967 1834 1613 1185 685 350 119 75 0 60
0 0 0 0 3 29 35 0 1 0 0 0 0 0 0 0 428 1066 481 1745 1976 1914 1832 1794 1730 1631 1623 1517 1395 1368 1360 1379 1424 1435 1319 1095 846 539 309 44 1 5 0 1
0 0 0 0 0 16 0 0 17 4 14 0 0 0 0 0 597 1183 1023 1918 2214 1985 1837 1815 1884 1885 1618 1361 1153 1150 1244 1232 1142 972 767 612 193 0 0 0 0 0 2 1
0 0 0 0 34 29 1 0 0 1 20 28 1 0 0 0 480 1232 1655 1892 2165 2254 1995 2056 2160 1937 1431 1044 889 857 862 765 603 509 109 0 0 0 0 0 0 0 0 0
19 0 21 67 66 81 81 77 68 80 61 25 1 0 0 0 206 871 1500 1785 1938 1999 2221 2149 2052 1552 1145 845 661 527 467 370 227 0 0 0 0 0 0 0 0 0 0 0
0 0 0 0 10 9 10 16 23 35 21 21 4 0 0 0 22 538 1104 1381 1581 1672 2125 2032 1632 1257 1028 804 645 510 409 153 17 0 0 0 0 0 0 0 0 0 0 0
0 0 0 0 0 0 0 0 8 1 0 0 0 0 0 0 41 445 688 1191 1382 1468 1276 1959 1421 972 588 481 303 161 123 67 47 8 0 0 0 0 0 0 0 0 0 0
0 0 0 0 0 0 0 0 0 0 0 0 0 0 0 96 378 528 514 634 1261 1170 1296 1833 961 738 434 170 116 178 129 128 78 31 0 0 0 0 0 0 0 0 0 0
16 9 0 0 0 0 0 0 0 0 0 0 0 0 0 247 556 435 592 350 794 998 1437 1106 747 574 415 4 22 8 16 30 83 7 0 0 0 0 0 0 0 0 0 0
17 19 12 0 0 0 0 0 0 0 0 0 0 0 1 539 470 254 602 436 561 808 882 829 653 377 261 140 19 6 1 22 48 4 3 0 0 0 0 0 0 0 0 0
0 0 0 1 0 0 0 0 2 3 16 24 0 0 206 589 569 289 512 417 502 543 729 691 287 70 12 0 0 0 0 0 0 1 0 0 0 0 0 0 0 0 0 0
0 0 0 0 0 0 0 0 12 21 16 0 9 16 236 815 741 365 275 422 315 257 114 0 1 0 0 0 0 0 1 1 0 0 0 0 0 0 0 0 0 0 0 0
31 15 26 14 0 0 0 0 0 8 1 0 18 38 270 867 629 481 285 387 152 54 12 0 0 0 0 0 0 0 4 0 0 0 0 0 0 0 0 0 0 0 0 0
0 0 0 27 5 1 0 0 11 15 19 90 66 61 312 736 543 290 157 62 7 4 0 3 3 1 0 0 0 0 0 0 0 0 0 0 0 0 0 0 0 0 0 0
3 4 5 2 0 0 0 7 6 12 55 101 95 118 359 435 398 284 200 91 54 30 2 0 0 0 0 0 0 0 0 0 0 0 0 0 0 0 0 0 0 0 0 0
0 0 0 0 0 0 1 20 13 1 0 113 87 149 340 346 282 94 82 48 38 12 9 15 17 22 14 8 0 2 0 1 1 0 0 0 0 0 0 0 0 0 0 0
1 0 0 3 0 2 8 12 6 4 1 7 68 121 356 237 106 114 72 11 9 2 3 0 0 1 4 0 0 0 0 0 0 0 0 0 0 0 0 0 0 0 0 0
1 0 0 0 25 23 36 64 60 74 93 197 163 235 177 122 51 29 46 16 31 2 0 0 1 0 0 0 0 0 0 0 0 0 0 0 0 0 0 0 0 0 0 0
23 6 0 10 30 25 36 55 78 52 50 95 152 150 121 4 8 3 21 62 19 3 0 0 0 0 0 0 0 0 0 0 0 0 0 0 0 0 0 0 0 0 0 0
16 23 7 0 2 3 18 21 41 9 3 0 1 0 63 31 11 59 73 27 9 2 0 0 0 0 0 0 0 0 0 0 0 0 0 0 0 0 0 0 0 0 0 0
0 13 21 18 0 0 4 3 0 0 4 0 0 0 31 35 32 42 39 40 8 1 0 0 0 0 0 0 0 0 0 0 0 0 0 0 0 0 0 0 0 0 0 0
0 0 19 16 28 19 18 40 29 15 22 0 29 50 50 0 53 65 70 68 18 6 0 0 0 0 0 0 0 0 0 0 0 0 0 0 0 0 0 0 0 0 0 0
CIN
-0 -0 -0 -0 -0 -0 -0 -0 -0 -0 -0 -0 -0 -0 -0 -0 -0 -413 -71 -40 -23 -29 -32 -30 -42 -57 -37 -36 -49 -616 -485 -424 -404 -375 -331 -293 -169 -156 -108 -75 -60 -59 -58 -45
-0 -0 -0 -0 -0 -0 -0 -0 -0 -0 -0 -0 -0 -0 -0 -0 -0 -303 -63 -131 -63 -43 -29 -217 -70 -90 -722 -649 -619 -550 -482 -421 -318 -254 -225 -184 -142 -110 -71 -60 -61 -60 -48 -142
-0 -0 -0 -0 -0 -0 -0 -0 -0 -0 -0 -0 -0 -0 -0 -0 -364 -248 -84 -84 -52 -33 -767 -733 -681 -624 -575 -485 -419 -365 -263 -211 -182 -184 -178 -138 -99 -98 -60 -62 -44 -37 -168 -86
-0 -0 -0 -0 -0 -0 -0 -0 -0 -0 -0 -0 -0 -0 -223 -0 -502 -187 -130 -71 -33 -612 -671 -608 -517 -419 -373 -338 -317 -270 -215 -151 -133 -137 -116 -94 -71 -53 -41 -43 -33 -157 -143 -89
-0 -0 -0 -0 -0 -0 -0 -0 -0 -0 -0 -0 -0 -273 -298 -334 -337 -347 -423 -445 -395 -548 -623 -524 -447 -368 -318 -294 -238 -211 -183 -137 -121 -109 -73 -56 -45 -28 -26 -29 -179 -181 -204 -97
-0 -0 -0 -0 -0 -0 -39 -0 -0 -0 -0 -0 -0 -0 -0 -187 -457 -444 -267 -348 -404 -431 -384 -402 -373 -300 -338 -329 -252 -199 -155 -116 -88 -68 -52 -23 -10 -22 -52 -48 -338 -347 -0 -275
-0 -0 -0 -0 -0 -6 -7 -0 -10 -0 -0 -0 -0 -0 -0 -0 -409 -325 -415 -341 -329 -334 -303 -254 -311 -306 -244 -227 -243 -229 -201 -161 -127 -98 -83 -77 -81 -80 -95 -406 -75 -3 -0 -0
-0 -0 -0 -0 -0 -11 -0 -0 -6 -28 -29 -0 -0 -0 -0 -22 -270 -243 -257 -258 -179 -233 -233 -191 -193 -178 -200 -232 -232 -236 -192 -134 -101 -94 -87 -73 -129 -5 -0 -0 -0 -0 -0 -0
-0 -0 -0 -0 -14 -13 -6 -0 -0 -7 -35 -29 -61 -0 -0 -0 -234 -151 -143 -120 -99 -65 -117 -143 -124 -137 -184 -222 -229 -231 -199 -156 -121 -108 -150 -0 -0 -0 -0 -0 -0 -0 -0 -0
-3 -0 -8 -7 -5 -6 -7 -7 -7 -8 -10 -30 -6 -3 -0 -0 -298 -144 -119 -116 -74 -33 -4 -44 -69 -124 -145 -159 -183 -181 -167 -139 -126 -0 -0 -0 -0 -0 -0 -0 -0 -0 -0 -0
-0 -0 -0 -0 -1 -2 -2 -3 -7 -6 -5 -5 -3 -0 -0 -0 -127 -156 -58 -73 -88 -65 -2 -0 -29 -99 -81 -91 -75 -81 -129 -145 -129 -0 -0 -0 -0 -0 -0 -0 -0 -0 -0 -0
-0 -0 -0 -0 -0 -0 -0 -0 -43 -24 -0 -0 -0 -0 -0 -0 -168 -81 -85 -17 -28 -52 -39 -0 -3 -30 -23 -1 -28 -61 -56 -107 -105 -91 -0 -0 -0 -0 -0 -0 -0 -0 -0 -0
-0 -0 -0 -0 -0 -0 -0 -0 -0 -0 -0 -0 -0 -0 -0 -154 -55 -7 -36 -49 -1 -23 -34 -0 -14 -24 -0 -8 -8 -0 -10 -21 -10 -96 -11 -0 -0 -0 -0 -0 -0 -0 -0 -0
-20 -14 -0 -0 -0 -0 -0 -0 -0 -0 -0 -0 -0 -0 -0 -102 -16 -15 -0 -32 -11 -3 -0 -0 -3 -17 -0 -41 -1 -2 -5 -6 -7 -44 -0 -0 -0 -0 -0 -0 -0 -0 -0 -0
-14 -2 -0 -0 -0 -0 -0 -0 -0 -0 -0 -0 -0 -0 -103 -51 -24 -28 -0 -2 -13 -0 -0 -0 -5 -28 -22 -10 -15 -24 -0 -2 -6 -4 -2 -0 -0 -0 -0 -0 -0 -0 -0 -0
-0 -0 -0 -21 -0 -0 -0 -0 -8 -12 -17 -43 -1 -0 -133 -33 -11 -32 -0 -0 -5 -0 -0 -0 -2 -20 -60 -0 -27 -0 -0 -0 -0 -6 -0 -0 -0 -0 -0 -0 -0 -0 -0 -0
-0 -0 -0 -0 -0 -0 -0 -0 -14 -23 -2 -0 -48 -56 -126 -15 -4 -11 -1 -0 -0 -0 -0 -0 -3 -0 -0 -0 -0 -0 -3 -0 -0 -0 -0 -0 -0 -0 -0 -0 -0 -0 -0 -0
-2 -1 -1 -2 -5 -0 -0 -0 -0 -20 -4 -0 -51 -107 -114 -8 -15 -0 -2 -0 -0 -2 -55 -0 -0 -0 -0 -0 -0 -0 -4 -0 -0 -0 -0 -0 -0 -0 -0 -0 -0 -0 -0 -0
-0 -0 -0 -0 -2 -2 -0 -0 -47 -43 -50 -31 -48 -64 -94 -10 -19 -0 -1 -0 -5 -0 -0 -1 -0 -0 -0 -0 -0 -0 -0 -0 -0 -0 -0 -0 -0 -0 -0 -0 -0 -0 -0 -0
-1 -0 -2 -0 -0 -0 -0 -22 -17 -38 -71 -53 -42 -107 -60 -37 -6 -0 -0 -9 -59 -12 -0 -0 -0 -0 -0 -0 -0 -0 -0 -0 -0 -0 -0 -0 -0 -0 -0 -0 -0 -0 -0 -0
-0 -0 -0 -0 -0 -0 -0 -2 -1 -16 -0 -59 -31 -89 -37 -22 -1 -0 -0 -0 -0 -1 -0 -0 -2 -0 -0 -1 -1 -0 -0 -1 -3 -0 -0 -0 -0 -0 -0 -0 -0 -0 -0 -0
-1 -0 -1 -0 -0 -0 -3 -5 -3 -53 -27 -95 -70 -51 -0 -0 -6 -12 -0 -4 -0 -0 -7 -0 -0 -0 -0 -0 -0 -0 -0 -0 -0 -0 -0 -0 -0 -0 -0 -0 -0 -0 -0 -0
-0 -0 -0 -0 -0 -3 -21 -46 -41 -20 -17 -9 -39 -5 -3 -0 -15 -0 -0 -0 -6 -0 -0 -0 -0 -0 -0 -0 -0 -0 -0 -0 -0 -0 -0 -0 -0 -0 -0 -0 -0 -0 -0 -0
-11 -0 -0 -1 -1 -5 -17 -48 -26 -27 -15 -15 -3 -2 -0 -0 -0 -0 -0 -7 -5 -1 -0 -0 -0 -0 -0 -0 -0 -0 -0 -0 -0 -0 -0 -0 -0 -0 -0 -0 -0 -0 -0 -0
-0 -3 -0 -0 -25 -0 -0 -5 -27 -17 -10 -0 -0 -0 -1 -0 -1 -3 -5 -4 -0 -0 -0 -0 -0 -0 -0 -0 -0 -0 -0 -0 -0 -0 -0 -0 -0 -0 -0 -0 -0 -0 -0 -0
-0 -1 -0 -0 -0 -0 -0 -2 -0 -0 -0 -0 -0 -0 -0 -0 -0 -0 -1 -2 -0 -0 -0 -0 -0 -0 -0 -0 -0 -0 -0 -0 -0 -0 -0 -0 -0 -0 -0 -0 -0 -0 -0 -0
-0 -0 -0 -0 -0 -0 -0 -0 -6 -3 -8 -0 -10 -9 -18 -0 -15 -6 -11 -3 -9 -0 -0 -0 -0 -0 -0 -0 -0 -0 -0 -0 -0 -0 -0 -0 -0 -0 -0 -0 -0 -0 -0 -0
Wind_Speed
nan nan nan nan nan nan nan nan nan nan nan nan nan nan nan nan nan nan 23 27 24 22 18 12 7 9 7 9 14 17 17 17 16 18 18 19 18 20 20 15 15 14 14 15
nan nan nan nan nan nan nan nan nan nan nan nan nan nan nan nan nan 29 25 25 28 28 28 24 11 7 10 8 10 14 17 16 18 19 21 21 21 23 18 15 15 18 16 15
nan nan nan nan nan nan nan nan nan nan nan nan nan nan nan nan nan 26 30 30 29 26 29 27 21 15 13 13 14 15 18 20 20 21 22 22 22 23 21 22 23 23 21 20
nan nan nan nan nan nan nan nan nan nan nan nan nan nan nan nan 39 33 31 33 32 31 32 35 31 23 24 23 24 26 25 25 25 25 25 23 23 25 26 26 28 27 26 26
nan nan nan nan nan nan nan nan nan nan nan nan nan nan nan 54 48 40 35 37 37 34 33 36 38 34 30 31 30 30 29 29 29 30 30 29 27 27 28 31 32 32 32 32
nan nan nan nan nan nan nan nan nan nan nan nan nan nan nan 45 45 39 37 42 44 43 38 39 41 39 36 36 34 31 30 34 35 34 34 32 31 30 29 33 36 nan nan nan
nan nan nan nan nan nan nan nan nan nan nan nan nan nan nan nan 42 41 38 40 49 48 44 43 43 45 43 38 36 36 36 35 39 38 37 36 34 33 34 nan nan nan nan nan
nan nan nan nan nan nan nan nan nan nan nan nan nan nan nan nan 49 46 46 47 46 48 50 47 48 47 45 42 42 45 45 40 37 42 42 39 41 nan nan nan nan nan nan nan
nan nan nan nan nan nan nan nan nan nan nan nan nan nan nan nan 57 59 60 50 52 48 49 50 49 50 52 47 48 52 53 48 42 41 46 nan nan nan nan nan nan nan nan nan
nan nan nan nan nan nan nan nan nan nan nan nan nan nan nan nan 53 58 60 60 57 57 53 46 48 49 55 57 52 53 58 58 54 nan nan nan nan nan nan nan nan nan nan nan
nan nan nan nan nan nan nan nan nan nan nan nan nan nan nan nan nan 55 53 56 60 63 56 54 47 54 60 61 61 61 60 64 nan nan nan nan nan nan nan nan nan nan nan nan
nan nan nan nan nan nan nan nan nan nan nan nan nan nan nan nan nan 54 58 58 59 68 77 71 60 63 66 60 60 67 58 nan nan nan nan nan nan nan nan nan nan nan nan nan
nan nan nan nan nan nan nan nan nan nan nan nan nan nan nan nan 53 63 66 63 61 64 72 73 77 80 76 73 75 79 66 69 nan nan nan nan nan nan nan nan nan nan nan nan
nan nan nan nan nan nan nan nan nan nan nan nan nan nan nan 37 38 49 57 64 68 70 66 68 68 63 68 nan nan nan nan nan nan nan nan nan nan nan nan nan nan nan nan nan
nan nan nan nan nan nan nan nan nan nan nan nan nan nan nan 31 37 37 50 57 64 71 70 68 68 65 67 68 nan nan nan nan nan nan nan nan nan nan nan nan nan nan nan nan
nan nan nan nan nan nan nan nan nan nan nan nan nan nan 33 32 35 34 40 44 55 52 61 65 69 nan nan nan nan nan nan nan nan nan nan nan nan nan nan nan nan nan nan nan
nan nan nan nan nan nan nan nan nan nan nan nan nan nan 32 30 33 33 30 33 39 46 60 nan nan nan nan nan nan nan nan nan nan nan nan nan nan nan nan nan nan nan nan nan
nan nan nan nan nan nan nan nan nan nan nan nan nan nan 27 27 27 21 28 35 44 nan nan nan nan nan nan nan nan nan nan nan nan nan nan nan nan nan nan nan nan nan nan nan
nan nan nan nan nan nan nan nan nan nan nan nan nan nan 23 22 21 26 34 nan nan nan nan nan nan nan nan nan nan nan nan nan nan nan nan nan nan nan nan nan nan nan nan nan
nan nan nan nan nan nan nan nan nan nan nan 23 nan 21 21 19 24 19 27 nan nan nan nan nan nan nan nan nan nan nan nan nan nan nan nan nan nan nan nan nan nan nan nan nan
nan nan nan nan nan nan nan nan nan nan nan 17 nan 19 14 17 27 nan nan nan nan nan nan nan nan nan nan nan nan nan nan nan nan nan nan nan nan nan nan nan nan nan nan nan
nan nan nan nan nan nan nan nan nan nan nan nan nan 16 16 17 19 19 nan nan nan nan nan nan nan nan nan nan nan nan nan nan nan nan nan nan nan nan nan nan nan nan nan nan
nan nan nan nan nan nan nan nan nan nan nan 15 14 20 24 27 nan nan nan nan nan nan nan nan nan nan nan nan nan nan nan nan nan nan nan nan nan nan nan nan nan nan nan nan
nan nan nan nan nan nan nan nan nan nan nan nan 23 24 25 nan nan nan nan nan nan nan nan nan nan nan nan nan nan nan nan nan nan nan nan nan nan nan nan nan nan nan nan nan
nan nan nan nan nan nan nan nan nan nan nan nan nan nan nan nan nan nan nan nan nan nan nan nan nan nan nan nan nan nan nan nan nan nan nan nan nan nan nan nan nan nan nan nan
nan nan nan nan nan nan nan nan nan nan nan nan nan nan nan nan nan nan nan nan nan nan nan nan nan nan nan nan nan nan nan nan nan nan nan nan nan nan nan nan nan nan nan nan
nan nan nan nan nan nan nan nan nan nan nan nan nan nan nan nan nan nan nan nan nan nan nan nan nan nan nan nan nan nan nan nan nan nan nan nan nan nan nan nan nan nan nan nan
Wind_Direction
nan nan nan nan nan nan nan nan nan nan nan nan nan nan nan nan nan nan 269 283 289 291 291 279 316 326 305 289 293 298 308 312 316 302 305 300 301 294 294 302 318 319 312 312
nan nan nan nan nan nan nan nan nan nan nan nan nan nan nan nan nan 267 267 268 276 281 285 294 298 301 277 301 329 314 314 309 292 292 292 295 295 290 298 307 304 295 295 294
nan nan nan nan nan nan nan nan nan nan nan nan nan nan nan nan nan 273 273 271 277 283 283 281 277 279 292 289 285 294 286 277 278 279 283 284 283 283 291 293 291 289 290 297
nan nan nan nan nan nan nan nan nan nan nan nan nan nan nan nan 247 247 253 260 262 266 269 274 269 259 268 273 278 283 286 285 285 287 289 286 285 287 285 283 284 288 288 291
nan nan nan nan nan nan nan nan nan nan nan nan nan nan nan 246 241 248 246 261 256 241 266 267 272 266 272 268 273 276 283 285 288 289 288 287 285 285 286 286 286 287 291 293
nan nan nan nan nan nan nan nan nan nan nan nan nan nan nan 240 246 242 243 264 267 264 252 264 271 270 273 271 276 277 281 284 285 287 284 283 284 284 283 285 289 nan nan nan
nan nan nan nan nan nan nan nan nan nan nan nan nan nan nan nan 240 248 257 261 266 268 272 269 268 273 275 276 280 275 276 277 282 282 282 282 279 280 281 nan nan nan nan nan
nan nan nan nan nan nan nan nan nan nan nan nan nan nan nan nan 238 238 239 257 262 269 272 270 270 274 274 281 279 281 280 279 277 277 278 278 279 nan nan nan nan nan nan nan
nan nan nan nan nan nan nan nan nan nan nan nan nan nan nan nan 236 242 248 250 250 255 259 266 270 272 276 270 277 280 281 279 273 274 274 nan nan nan nan nan nan nan nan nan
nan nan nan nan nan nan nan nan nan nan nan nan nan nan nan nan 239 239 243 252 251 250 255 259 264 264 267 271 269 274 280 280 274 nan nan nan nan nan nan nan nan nan nan nan
nan nan nan nan nan nan nan nan nan nan nan nan nan nan nan nan nan 239 240 243 246 250 251 253 249 252 260 264 263 267 265 268 nan nan nan nan nan nan nan nan nan nan nan nan
nan nan nan nan nan nan nan nan nan nan nan nan nan nan nan nan nan 241 243 243 248 245 244 247 246 252 250 248 254 258 253 nan nan nan nan nan nan nan nan nan nan nan nan nan
nan nan nan nan nan nan nan nan nan nan nan nan nan nan nan nan 245 245 246 245 246 248 245 249 250 248 247 253 260 252 252 265 nan nan nan nan nan nan nan nan nan nan nan nan
nan nan nan nan nan nan nan nan nan nan nan nan nan nan nan 249 252 248 250 244 250 247 248 249 255 254 258 nan nan nan nan nan nan nan nan nan nan nan nan nan nan nan nan nan
nan nan nan nan nan nan nan nan nan nan nan nan nan nan nan 255 260 255 250 252 246 249 245 250 251 257 261 265 nan nan nan nan nan nan nan nan nan nan nan nan nan nan nan nan
nan nan nan nan nan nan nan nan nan nan nan nan nan nan 257 259 263 267 258 251 255 251 249 244 257 nan nan nan nan nan nan nan nan nan nan nan nan nan nan nan nan nan nan nan
nan nan nan nan nan nan nan nan nan nan nan nan nan nan 253 263 265 266 260 249 243 249 246 nan nan nan nan nan nan nan nan nan nan nan nan nan nan nan nan nan nan nan nan nan
nan nan nan nan nan nan nan nan nan nan nan nan nan nan 247 261 256 270 258 248 244 nan nan nan nan nan nan nan nan nan nan nan nan nan nan nan nan nan nan nan nan nan nan nan
nan nan nan nan nan nan nan nan nan nan nan nan nan nan 248 248 251 254 249 nan nan nan nan nan nan nan nan nan nan nan nan nan nan nan nan nan nan nan nan nan nan nan nan nan
nan nan nan nan nan nan nan nan nan nan nan 239 nan 239 243 247 243 244 251 nan nan nan nan nan nan nan nan nan nan nan nan nan nan nan nan nan nan nan nan nan nan nan nan nan
nan nan nan nan nan nan nan nan nan nan nan 232 nan 245 220 245 246 nan nan nan nan nan nan nan nan nan nan nan nan nan nan nan nan nan nan nan nan nan nan nan nan nan nan nan
nan nan nan nan nan nan nan nan nan nan nan nan nan 221 223 222 222 231 nan nan nan nan nan nan nan nan nan nan nan nan nan nan nan nan nan nan nan nan nan nan nan nan nan nan
nan nan nan nan nan nan nan nan nan nan nan 206 214 207 192 197 nan nan nan nan nan nan nan nan nan nan nan nan nan nan nan nan nan nan nan nan nan nan nan nan nan nan nan nan
nan nan nan nan nan nan nan nan nan nan nan nan 204 215 207 nan nan nan nan nan nan nan nan nan nan nan nan nan nan nan nan nan nan nan nan nan nan nan nan nan nan nan nan nan
nan nan nan nan nan nan nan nan nan nan nan nan nan nan nan nan nan nan nan nan nan nan nan nan nan nan nan nan nan nan nan nan nan nan nan nan nan nan nan nan nan nan nan nan
nan nan nan nan nan nan nan nan nan nan nan nan nan nan nan nan nan nan nan nan nan nan nan nan nan nan nan nan nan nan nan nan nan nan nan nan nan nan nan nan nan nan nan nan
nan nan nan nan nan nan nan nan nan nan nan nan nan nan nan nan nan nan nan nan nan nan nan nan nan nan nan nan nan nan nan nan nan nan nan nan nan nan nan nan nan nan nan nan